Epoch = 2021 July 5.0 TT T = 2021 June 17.30762 TT Peri. = 351.88801 e = 0.6652062 Node = 180.52654 2000.0 q = 1.0128243 AU Incl. = 18.89375 a = 3.0252183 AU n = 0.18731346 P = 5.26 years
H = 19.0 G = 0.15